Lehigh Valley, PA

5:59 AM EST on January 18, 2017 (GMT -0500)
Lehigh Valley International

Weather History for KABE - April, 2013

Change the Weather History Date:

Saturday, April 20, 2013

  Actual Average Record
Temperature  
Mean Temperature 47 °F 52 °F  
Max Temperature 56 °F 63 °F 90 °F (1941)
Min Temperature 38 °F 40 °F 29 °F (1961)
Degree Days  
Heating Degree Days 18 14  
Month to date heating degree days 279 338  
Since 1 July heating degree days 5067 5450  
Cooling Degree Days 0 0  
Month to date cooling degree days 8 0  
Year to date cooling degree days 8 0  
Moisture  
Dew Point 31 °F    
Average Humidity 59    
Maximum Humidity 86    
Minimum Humidity 32    
Precipitation  
Precipitation 0.03 in 0.12 in 1.14 in (1940)
Month to date precipitation 2.72 2.39  
Year to date precipitation 11.07 11.51  
Snow  
Snow 0.00 in 0.00 in T in (1983)
Month to date snowfall 0.0 0.9  
Since 1 July snowfall 21.4 32.8  
Snow Depth 0.00 in    
Sea Level Pressure  
Sea Level Pressure 30.02 in    
Wind  
Wind Speed 12 mph (West)    
Max Wind Speed 23 mph    
Max Gust Speed 35 mph    
Visibility 10 miles    
Events Rain    
T = Trace of Precipitation, MM = Missing Value Source: NWS Daily Summary

Daily Weather History Graph

Daily Weather History Graph

Search for Another Location

Airport or City:

Trip Planner

Search our weather history database for the weather conditions in past years. The results will help you decide how hot, cold, wet, or windy it might be!

Date:

Astronomy

Apr. 20, 2013 Rise Set
Actual Time 6:15 AM EDT 7:46 PM EDT
Civil Twilight 5:46 AM EDT 8:15 PM EDT
Nautical Twilight 5:12 AM EDT 8:50 PM EDT
Astronomical Twilight 4:35 AM EDT 9:27 PM EDT
Moon 2:26 PM EDT (4/20) 3:05 AM EDT (4/20)
Length of Visible Light 14h 28m
Length of Day
13h 31m
Waxing Gibbous, 71% of the Moon is Illuminated
Apr 20
Waxing Gibbous
Apr 25
Full
May 2
Last Quarter
May 9
New
May 18
First Quarter

Hourly Weather History & Observations

Time (EDT) Temp. Windchill Dew Point Humidity Pressure Visibility Wind Dir Wind Speed Gust Speed Precip Events Conditions
12:51 AM 50.0 °F - 46.0 °F 86% 29.77 in 10.0 mi West 12.7 mph - 0.02 in Rain Light Rain
1:51 AM 48.9 °F - 45.0 °F 86% 29.77 in 5.0 mi West 12.7 mph 18.4 mph 0.02 in Rain Rain
2:51 AM 48.0 °F - 44.1 °F 86% 29.77 in 10.0 mi West 6.9 mph - 0.00 in   Overcast
3:51 AM 48.0 °F - 42.1 °F 80% 29.80 in 10.0 mi West 6.9 mph - 0.01 in Rain Light Rain
4:51 AM 48.0 °F - 39.9 °F 74% 29.83 in 10.0 mi West 6.9 mph - 0.00 in   Overcast
5:51 AM 46.9 °F - 34.0 °F 61% 29.87 in 10.0 mi West 6.9 mph - N/A   Mostly Cloudy
6:51 AM 46.0 °F 41.4 °F 34.0 °F 63% 29.89 in 10.0 mi WNW 9.2 mph 16.1 mph N/A   Clear
7:51 AM 46.0 °F 39.9 °F 30.9 °F 56% 29.93 in 10.0 mi West 13.8 mph 21.9 mph N/A   Clear
8:51 AM 46.0 °F 40.6 °F 28.9 °F 51% 29.95 in 10.0 mi WNW 11.5 mph 21.9 mph N/A   Clear
9:51 AM 46.0 °F 39.9 °F 28.9 °F 51% 29.97 in 10.0 mi West 13.8 mph 20.7 mph N/A   Clear
10:51 AM 50.0 °F - 30.9 °F 48% 30.00 in 10.0 mi West 16.1 mph 24.2 mph N/A   Mostly Cloudy
11:51 AM 50.0 °F - 28.9 °F 44% 30.02 in 10.0 mi West 16.1 mph 24.2 mph N/A   Overcast
12:51 PM 52.0 °F - 28.9 °F 41% 30.01 in 10.0 mi West 15.0 mph 23.0 mph N/A   Mostly Cloudy
1:51 PM 54.0 °F - 30.0 °F 40% 30.01 in 10.0 mi West 19.6 mph 27.6 mph N/A   Mostly Cloudy
2:51 PM 54.0 °F - 28.9 °F 38% 30.02 in 10.0 mi WNW 15.0 mph 26.5 mph N/A   Partly Cloudy
3:51 PM 55.0 °F - 30.0 °F 38% 30.04 in 10.0 mi West 13.8 mph 29.9 mph N/A   Scattered Clouds
4:51 PM 53.1 °F - 27.0 °F 37% 30.06 in 10.0 mi West 13.8 mph 25.3 mph N/A   Mostly Cloudy
5:51 PM 54.0 °F - 25.0 °F 33% 30.10 in 10.0 mi West 16.1 mph 27.6 mph N/A   Partly Cloudy
6:51 PM 51.1 °F - 23.0 °F 33% 30.14 in 10.0 mi WNW 17.3 mph 24.2 mph N/A   Partly Cloudy
7:51 PM 48.9 °F - 23.0 °F 36% 30.18 in 10.0 mi West 10.4 mph 24.2 mph N/A   Clear
8:51 PM 46.9 °F - 24.1 °F 41% 30.23 in 10.0 mi WNW 11.5 mph 17.3 mph N/A   Clear
9:51 PM 46.0 °F 40.6 °F 23.0 °F 40% 30.29 in 10.0 mi WNW 11.5 mph - N/A   Clear
10:51 PM 45.0 °F 40.1 °F 23.0 °F 42% 30.31 in 10.0 mi WNW 9.2 mph - N/A   Clear
11:51 PM 42.1 °F 36.6 °F 23.0 °F 47% 30.35 in 10.0 mi North 9.2 mph - N/A   Clear